Flag for Rwanda Weather past 2 weeks in Butare, Rwanda

Now
79 °F

Sunny.


Feels Like: 80 °F
Forecast: 64 / 79 °F
Wind: No wind

Location: Kigali Airport

Current Time: Aug 31, 2015 at 9:21:31 AM

Latest Report: Aug 31, 2015 at 9:00 AM


Visibility: 10 mi

Pressure: 30.21 "Hg (24.74 "Hg at 1750m altitude)

Humidity: 58%

Dew point: 63 °F

Location of ButareLocation

Historic Weather in Butare — Graph

°F

Butare temperature yesterday

Maximum temperature yesterday: 90 °F (at 3:30 PM)
Minimum temperature yesterday: 64 °F (at 5:00 AM)
Average temperature yesterday: 75 °F

Past Weeks' High & Low Weather Summary

 TemperatureHumidityPressure
High90 °F (Aug 20, 3:30 PM)88% (Aug 22, 5:00 AM)30.27 "Hg (Aug 22, 5:00 AM)
Low57 °F (Aug 24, 5:30 AM)20% (Aug 16, 11:00 AM)29.98 "Hg (Aug 20, 5:00 PM)
Average75 °F49%30.12 "Hg
* Reported Aug 16 8:00 AM — Aug 31 8:00 AM, Butare, Weather by CustomWeather, © 2015

Note: Actual official high and low records may vary slightly from our data, if they occured in-between our weather recording intervals... More about our weather records

Advertising

Butare weather history for previous 24 hours

 ConditionsComfort  
Time TempWeatherWind HumidityBarometerVisibility
8:00 AM
Mon, Aug 31
72 °FPassing clouds.No wind73%30.21 "HgN/A
7:30 AM70 °FScattered clouds.5 mph78%30.21 "HgN/A
7:00 AM66 °FScattered clouds.6 mph83%30.18 "HgN/A
6:30 AM66 °FScattered clouds.3 mph78%30.18 "HgN/A
6:00 AM64 °FPassing clouds.No wind88%30.15 "HgN/A
5:30 AM66 °FPassing clouds.No wind78%30.12 "HgN/A
5:00 AM66 °FPassing clouds.No wind78%30.12 "HgN/A
4:00 AM66 °FPassing clouds.No wind78%30.12 "HgN/A
3:30 AM66 °FPassing clouds.7 mph83%30.12 "HgN/A
3:00 AM68 °FPassing clouds.3 mph73%30.12 "HgN/A
2:30 AM68 °FPassing clouds.3 mph73%30.12 "HgN/A
2:00 AM68 °FPassing clouds.3 mph73%30.12 "HgN/A
1:30 AM70 °FPassing clouds.3 mph69%30.12 "HgN/A
1:00 AM70 °FPassing clouds.3 mph69%30.15 "HgN/A
12:30 AM70 °FPassing clouds.No wind69%30.15 "HgN/A
12:00 AM72 °FPassing clouds.No wind65%30.15 "HgN/A
11:30 PM
Sun, Aug 30
72 °FPassing clouds.No wind61%30.15 "HgN/A
11:00 PM72 °FPassing clouds.No wind65%30.15 "HgN/A
10:30 PM72 °FPassing clouds.No wind65%30.15 "HgN/A
9:30 PM73 °FPassing clouds.3 mph61%30.15 "HgN/A
9:00 PM73 °FPassing clouds.3 mph65%30.12 "HgN/A
8:30 PM73 °FPassing clouds.7 mph65%30.12 "HgN/A
8:00 PM72 °FPassing clouds.3 mph69%30.09 "HgN/A
7:30 PM72 °FPassing clouds.No wind73%30.09 "HgN/A
7:00 PM72 °FPassing clouds.3 mph73%30.07 "HgN/A
6:30 PM70 °FPassing clouds.8 mph78%30.07 "HgN/A
6:00 PM79 °FSprinkles. Partly sunny.9 mph58%30.07 "HgN/A
5:00 PM88 °FScattered clouds.8 mph31%30.04 "HgN/A
4:30 PM88 °FScattered clouds.10 mph31%30.04 "HgN/A
4:00 PM88 °FScattered clouds.9 mph31%30.04 "HgN/A
3:30 PM90 °FScattered clouds.6 mph29%30.04 "HgN/A
3:00 PM88 °FScattered clouds.8 mph29%30.04 "HgN/A
2:30 PM88 °FScattered clouds.7 mph29%30.07 "HgN/A
2:00 PM88 °FScattered clouds.9 mph29%30.07 "HgN/A
1:00 PM86 °FScattered clouds.7 mph33%30.12 "HgN/A
12:30 PM84 °FScattered clouds.9 mph35%30.15 "HgN/A
11:30 AM82 °FPassing clouds.7 mph40%30.18 "HgN/A
11:00 AM82 °FPassing clouds.3 mph40%30.21 "HgN/A
10:30 AM81 °FPassing clouds.6 mph42%30.21 "HgN/A
10:00 AM79 °FPassing clouds.6 mph45%30.24 "HgN/A
9:30 AM77 °FPassing clouds.5 mph51%30.24 "HgN/A
9:00 AM77 °FSunny.3 mph51%30.21 "Hg10 mi
Weather by CustomWeather, © 2015

See weather overviewHow to use our weather pages